| time (UTC) | temp F | wind direction | speed MPH | gust MPH | rain 1hr in | rain 24hr in | rain mn in | humidity % | barometer mb |
| 20260506081517 | 67 | 233 | 0.0 | 6.0 | 0.00 | 0.00 | 0.00 | 66 | 1007.6 |
| 20260506073009 | 68 | 214 | 0.0 | 3.0 | 0.00 | 0.00 | 0.00 | 63 | 1007.7 |
| 20260506071507 | 68 | 207 | 0.0 | 5.0 | 0.00 | 0.00 | 0.00 | 62 | 1007.9 |
| 20260506061606 | 69 | 110 | 0.0 | 6.0 | 0.00 | 0.00 | 0.00 | 59 | 1008.4 |
| 20260506044611 | 68 | 213 | 0.0 | 4.0 | 0.00 | 0.00 | 0.00 | 54 | 1009.0 |
| 20260506043047 | 68 | 203 | 0.0 | 3.0 | 0.00 | 0.00 | 0.00 | 52 | 1009.0 |
| 20260506041545 | 69 | 210 | 0.0 | 3.0 | 0.00 | 0.00 | 0.00 | 52 | 1009.0 |
| 20260506040046 | 69 | 208 | 0.0 | 4.0 | 0.00 | 0.00 | 0.00 | 50 | 1009.1 |
| 20260506034544 | 68 | 193 | 0.0 | 3.0 | 0.00 | 0.00 | 0.00 | 50 | 1009.0 |
| 20260506033043 | 69 | 129 | 0.0 | 2.0 | 0.00 | 0.00 | 0.00 | 49 | 1009.0 |
| 20260506031543 | 69 | 128 | 0.0 | 4.0 | 0.00 | 0.00 | 0.00 | 47 | 1009.0 |
| 20260506030043 | 70 | 174 | 0.0 | 3.0 | 0.00 | 0.00 | 0.00 | 46 | 1009.0 |
| 20260506024542 | 70 | 138 | 0.0 | 4.0 | 0.00 | 0.00 | 0.00 | 44 | 1009.0 |
| 20260506023051 | 71 | 155 | 0.0 | 4.0 | 0.00 | 0.00 | 0.00 | 43 | 1009.1 |
| 20260506021543 | 71 | 200 | 0.0 | 6.0 | 0.00 | 0.00 | 0.00 | 43 | 1009.0 |
| 20260506020039 | 71 | 174 | 0.0 | 3.0 | 0.00 | 0.00 | 0.00 | 42 | 1008.8 |
| 20260506014539 | 71 | 196 | 0.0 | 2.0 | 0.00 | 0.00 | 0.00 | 42 | 1008.8 |
| 20260506013036 | 72 | 187 | 0.0 | 4.0 | 0.00 | 0.00 | 0.00 | 41 | 1008.8 |
| 20260506011536 | 72 | 214 | 0.0 | 2.0 | 0.00 | 0.00 | 0.00 | 42 | 1008.6 |
| 20260506010047 | 73 | 226 | 0.0 | 2.0 | 0.00 | 0.00 | 0.00 | 40 | 1008.4 |
| 20260506004535 | 73 | 218 | 0.0 | 5.0 | 0.00 | 0.00 | 0.00 | 40 | 1008.2 |
| 20260506003034 | 74 | 269 | 0.0 | 3.0 | 0.00 | 0.00 | 0.00 | 40 | 1008.1 |
| 20260506001537 | 74 | 231 | 0.0 | 3.0 | 0.00 | 0.00 | 0.00 | 40 | 1007.9 |
| 20260506000033 | 75 | 226 | 0.0 | 5.0 | 0.00 | 0.00 | 0.00 | 40 | 1007.9 |
| 20260505234554 | 75 | 196 | 0.0 | 4.0 | 0.00 | 0.00 | 0.00 | 39 | 1007.8 |
| 20260505233037 | 76 | 280 | 0.0 | 4.0 | 0.00 | 0.00 | 0.00 | 39 | 1007.7 |
| 20260505231532 | 77 | 64 | 1.0 | 5.0 | 0.00 | 0.00 | 0.00 | 38 | 1007.7 |
| 20260505230031 | 77 | 231 | 0.0 | 3.0 | 0.00 | 0.00 | 0.00 | 36 | 1007.4 |
| 20260505224533 | 78 | 259 | 1.0 | 7.0 | 0.00 | 0.00 | 0.00 | 34 | 1007.5 |
| 20260505223028 | 78 | 203 | 2.0 | 7.0 | 0.00 | 0.00 | 0.00 | 34 | 1007.7 |
| 20260505221527 | 79 | 218 | 0.0 | 10.0 | 0.00 | 0.00 | 0.00 | 34 | 1007.9 |
| 20260505220026 | 79 | 219 | 1.0 | 11.0 | 0.00 | 0.00 | 0.00 | 35 | 1007.6 |
| 20260505214552 | 80 | 302 | 1.0 | 5.0 | 0.00 | 0.00 | 0.00 | 34 | 1007.5 |
| 20260505213023 | 80 | 266 | 2.0 | 8.0 | 0.00 | 0.00 | 0.00 | 34 | 1007.5 |
| 20260505211522 | 81 | 206 | 1.0 | 7.0 | 0.00 | 0.00 | 0.00 | 35 | 1007.7 |
| 20260505210021 | 81 | 226 | 1.0 | 8.0 | 0.00 | 0.00 | 0.00 | 36 | 1007.4 |
| 20260505204520 | 83 | 218 | 1.0 | 6.0 | 0.00 | 0.00 | 0.00 | 34 | 1007.6 |
| 20260505203023 | 83 | 221 | 1.0 | 11.0 | 0.00 | 0.00 | 0.00 | 35 | 1007.6 |
| 20260505201523 | 81 | 221 | 2.0 | 9.0 | 0.00 | 0.00 | 0.00 | 35 | 1007.8 |
| 20260505200013 | 82 | 208 | 1.0 | 7.0 | 0.00 | 0.00 | 0.00 | 35 | 1007.9 |
| 20260505194513 | 82 | 206 | 3.0 | 10.0 | 0.00 | 0.00 | 0.00 | 35 | 1008.0 |
| 20260505193010 | 82 | 273 | 1.0 | 6.0 | 0.00 | 0.00 | 0.00 | 35 | 1008.2 |
| 20260505191508 | 81 | 202 | 2.0 | 5.0 | 0.00 | 0.00 | 0.00 | 36 | 1008.3 |
| 20260505190005 | 82 | 158 | 0.0 | 7.0 | 0.00 | 0.00 | 0.00 | 36 | 1008.5 |
| 20260505184504 | 82 | 207 | 1.0 | 8.0 | 0.00 | 0.00 | 0.00 | 36 | 1008.6 |
| 20260505183102 | 82 | 243 | 1.0 | 12.0 | 0.00 | 0.00 | 0.00 | 41 | 1008.8 |
| 20260505181557 | 80 | 271 | 2.0 | 12.0 | 0.00 | 0.00 | 0.00 | 39 | 1008.8 |
| 20260505180107 | 80 | 216 | 3.0 | 10.0 | 0.00 | 0.00 | 0.00 | 38 | 1009.0 |
| 20260505174601 | 80 | 233 | 2.0 | 6.0 | 0.00 | 0.00 | 0.00 | 41 | 1009.2 |
| 20260505173049 | 79 | 268 | 2.0 | 8.0 | 0.00 | 0.00 | 0.00 | 41 | 1009.2 |
| 20260505171547 | 78 | 210 | 2.0 | 13.0 | 0.00 | 0.00 | 0.00 | 42 | 1009.4 |
| 20260505170044 | 78 | 200 | 2.0 | 7.0 | 0.00 | 0.00 | 0.00 | 42 | 1009.7 |
| 20260505164545 | 78 | 200 | 2.0 | 8.0 | 0.00 | 0.00 | 0.00 | 45 | 1010.1 |
| 20260505163039 | 78 | 212 | 0.0 | 6.0 | 0.00 | 0.00 | 0.00 | 47 | 1010.3 |
| 20260505161538 | 77 | 256 | 0.0 | 6.0 | 0.00 | 0.00 | 0.00 | 47 | 1010.3 |
| 20260505153033 | 76 | 257 | 3.0 | 6.0 | 0.00 | 0.00 | 0.00 | 48 | 1010.4 |
| 20260505151532 | 75 | 206 | 0.0 | 6.0 | 0.00 | 0.00 | 0.00 | 51 | 1010.3 |
| 20260505124559 | 66 | 227 | 0.0 | 4.0 | 0.00 | 0.00 | 0.00 | 63 | 1011.4 |
| 20260505123103 | 64 | 211 | 0.0 | 3.0 | 0.00 | 0.00 | 0.00 | 66 | 1011.5 |
| 20260505121555 | 63 | 235 | 0.0 | 2.0 | 0.00 | 0.00 | 0.00 | 68 | 1011.5 |
| 20260505120051 | 62 | 251 | 0.0 | 3.0 | 0.00 | 0.00 | 0.00 | 69 | 1011.3 |
| 20260505114548 | 61 | 230 | 0.0 | 1.0 | 0.00 | 0.00 | 0.00 | 71 | 1011.2 |
| 20260505113048 | 60 | 159 | 0.0 | 2.0 | 0.00 | 0.00 | 0.00 | 72 | 1010.9 |
| 20260505111546 | 60 | 204 | 0.0 | 1.0 | 0.00 | 0.00 | 0.00 | 72 | 1010.8 |
| 20260505101540 | 58 | 176 | 0.0 | 0.0 | 0.00 | 0.00 | 0.00 | 75 | 1010.1 |
| 20260505100038 | 58 | 235 | 0.0 | 2.0 | 0.00 | 0.00 | 0.00 | 74 | 1010.1 |
| 20260505094536 | 59 | 226 | 0.0 | 1.0 | 0.00 | 0.00 | 0.00 | 73 | 1010.0 |
| 20260505093038 | 59 | 144 | 0.0 | 1.0 | 0.00 | 0.00 | 0.00 | 73 | 1010.0 |
| 20260505091540 | 59 | 135 | 0.0 | 4.0 | 0.00 | 0.00 | 0.00 | 73 | 1009.8 |
| 20260505090034 | 59 | 232 | 0.0 | 1.0 | 0.00 | 0.00 | 0.00 | 73 | 1009.9 |
| 20260505084533 | 59 | 208 | 0.0 | 1.0 | 0.00 | 0.00 | 0.00 | 73 | 1010.0 |
| 20260505083033 | 59 | 227 | 0.0 | 1.0 | 0.00 | 0.00 | 0.00 | 72 | 1009.8 |